Location: Bilsen
(53.7722°N, 9.8765°E)
Time: 17:07:25
(UTC+00:00)

ARIANE 5 R/B - Pass Details

Date: 18 February 2020
Orbit: 749 x 794 km, 98.6° (Epoch: 06 April)

Event Time Altitude Azimuth Distance (km) Brightness Sun altitude
Rises 03:58:19 0° 8° (N) 3,216 6.0 -23.6°
Reaches altitude 10° 04:01:07 10° 353° (N) 2,284 5.0 -23.2°
Enters shadow 04:03:07 18° 331° (NNW) 1,816 4.3 -23.0°
